Presure
171 185 184 180 182 174 165 192 180 191 198 188 174 192 129 182 181 174 110 248 169 188 236 177 94 90 175 88 88 92 95 93 86 92 94 89 96 96 103 100 93 102 196
185 160 187 171 184 192 188 192 193 186 187 192 203 199 178 230 234 228 214 204 124 149 152 187 96 115 84 91 90 91 93 96 92 94 94 83 95 99 99 86 103 93 107
174 179 181 182 183 182 187 180 181 175 184 201 201 209 237 230 233 231 217 110 208 217 220 219 233 154 224 85 109 121 156 97 79 151 224 98 84 100 99 89 223 90 97
193 186 183 183 191 191 192 194 189 194 195 195 215 238 228 245 240 231 231 223 233 229 211 203 125 230 141 105 106 103 100 78 183 242 211 198 187 94 104 95 236 156 89
172 171 176 185 182 184 200 199 192 194 194 211 214 215 211 219 215 212 217 225 216 221 218 210 217 226 101 104 95 95 154 176 216 252 99 100 158 222 223 220 211 88 235
179 181 181 181 199 205 201 196 197 196 206 223 207 213 218 208 217 222 209 202 209 198 201 205 227 202 225 243 240 88 240 252 221 234 256 247 235 232 226 220 180 216 236
185 193 194 196 208 191 193 201 206 204 204 212 219 205 209 210 212 224 213 212 207 220 205 210 195 229 228 232 238 233 236 220 262 252 239 244 242 233 228 230 224 215 207
195 193 209 196 203 199 196 198 207 206 208 209 205 208 210 208 213 218 218 210 205 210 224 209 208 217 220 226 235 235 224 236 252 252 247 239 265 239 231 233 233 228 219
201 212 203 202 197 204 205 203 201 205 206 204 206 213 215 201 208 212 220 218 221 214 217 222 214 215 215 221 220 233 228 219 228 249 247 240 242 229 227 242 264 271 253
212 206 211 202 195 201 200 203 206 206 204 202 207 204 196 202 209 217 216 203 212 211 216 221 215 204 215 219 220 225 228 233 229 244 245 244 246 243 246 239 237 238 261
205 201 205 205 204 201 209 212 203 202 200 192 197 200 200 211 206 220 218 215 213 206 206 218 200 212 209 224 221 221 220 237 221 225 237 241 239 237 236 242 243 248 255
205 201 202 206 213 203 201 195 192 200 202 205 205 204 209 207 217 207 215 216 211 207 208 203 211 208 213 216 218 220 215 229 232 215 234 232 228 224 226 233 232 240 266
210 214 213 210 208 212 210 210 209 203 196 217 216 213 210 217 214 217 216 219 212 224 211 213 203 207 212 226 210 217 221 236 225 220 239 230 229 225 220 229 248 242 240
214 215 218 234 235 233 230 229 230 232 230 236 225 226 224 225 224 225 222 215 212 212 209 202 209 208 208 217 213 221 224 240 224 243 236 234 232 228 219 240 240 233 231
243 236 236 233 234 235 236 227 225 223 225 226 233 238 218 233 225 222 223 209 209 203 208 200 211 213 224 209 216 227 229 238 240 235 238 245 229 220 242 251 229 218 219
242 239 240 244 232 248 251 245 183 235 233 232 224 222 233 210 219 220 214 208 210 208 197 193 216 221 208 209 235 236 199 240 236 235 230 222 213 239 240 226 238 225 223
271 169 229 172 268 270 272 270 257 247 240 239 239 236 219 218 228 225 215 213 212 210 197 176 206 198 191 228 231 242 252 226 239 232 228 225 244 240 252 243 210 199 196
278 268 260 255 248 240 236 235 241 260 250 241 234 228 219 230 224 207 222 218 216 216 152 162 212 229 234 244 236 249 240 229 225 226 234 232 234 231 201 202 248 236 230
331 297 281 259 245 244 246 234 233 227 228 224 229 223 222 225 224 227 214 165 186 152 194 232 217 243 245 247 247 226 228 218 230 247 204 207 254 254 251 234 224 243 232
367 358 294 279 269 248 241 245 241 235 163 220 222 225 188 219 220 163 193 163 213 183 160 217 232 228 241 234 213 218 226 248 193 198 247 252 234 229 233 242 231 218 259
355 344 318 313 280 126 113 162 154 147 139 232 213 235 221 219 201 185 219 216 180 225 226 236 234 245 233 216 223 226 222 222 245 251 220 227 232 240 255 254 251 266 277
357 346 330 320 307 267 269 281 131 171 202 155 260 259 275 162 168 172 169 238 236 227 235 225 244 213 218 235 224 202 248 244 210 229 230 233 243 246 243 257 267 290 404
348 374 350 331 320 259 254 264 272 234 164 260 223 271 260 247 185 197 214 190 229 237 238 210 235 235 211 231 240 251 215 222 231 233 236 242 238 243 251 271 355 385 396
300 297 352 337 334 282 265 216 234 275 207 242 173 234 221 183 236 202 234 237 237 225 218 224 228 214 244 251 231 217 226 226 234 248 241 243 247 256 309 364 375 387 366
280 277 278 278 275 280 331 299 305 256 190 240 228 227 239 217 225 233 223 208 225 224 230 216 239 247 239 221 221 227 231 241 237 243 253 251 330 369 355 359 375 357 342
248 275 203 232 206 255 257 259 254 243 237 218 239 243 238 218 215 219 223 222 215 223 232 239 212 161 215 227 229 235 240 240 250 251 375 381 363 356 350 359 347 334 233
Wind_Speed
79 85 85 86 87 88 88 89 87 87 87 86 84 89 55 87 87 66 45 60 59 72 67 54 39 38 53 36 37 39 38 36 38 37 38 38 41 41 47 44 41 44 52
84 72 85 79 88 88 89 88 87 87 87 88 86 88 86 79 72 69 70 69 52 51 50 56 43 49 38 42 43 41 41 44 42 43 42 40 46 49 46 43 51 44 52
85 86 86 88 90 90 87 87 88 88 89 87 87 87 72 74 72 69 68 45 68 66 61 55 59 54 66 41 52 53 65 48 43 55 62 54 45 54 51 46 61 45 45
82 84 86 87 88 86 86 85 87 88 87 87 87 69 71 62 64 64 63 60 57 59 51 59 52 59 53 53 54 54 53 42 62 58 60 61 60 53 59 51 61 56 47
84 85 89 90 88 86 85 83 85 86 85 85 80 76 76 68 68 66 68 64 62 61 59 59 61 61 54 57 52 51 55 57 64 57 58 60 62 62 63 63 59 50 61
91 92 92 91 91 88 84 84 83 84 82 76 78 74 70 72 67 69 66 62 63 63 64 65 63 62 55 54 55 51 55 55 55 59 58 60 61 61 63 64 60 63 62
93 96 90 88 88 84 85 87 86 84 80 78 75 77 75 73 72 70 68 68 68 69 69 68 64 62 61 59 55 55 56 61 51 56 59 60 62 63 64 64 65 67 66
94 90 92 89 88 86 85 87 88 86 82 80 79 79 78 74 74 72 72 68 66 68 70 69 68 65 65 62 58 57 60 56 55 55 58 61 51 61 64 66 67 68 69
95 93 89 90 89 90 90 88 86 87 86 82 80 80 80 79 78 77 76 73 73 69 70 69 68 67 66 66 62 61 62 63 60 58 58 60 59 65 66 62 58 61 67
95 93 92 86 85 89 88 88 87 87 84 84 83 82 81 85 86 87 78 74 76 73 72 70 69 71 70 69 68 67 65 66 62 63 60 60 60 62 62 67 69 70 67
93 90 92 92 91 88 94 93 86 86 87 84 85 87 86 88 87 88 84 84 82 74 73 73 71 73 71 70 71 71 67 72 64 66 65 63 63 62 64 66 69 70 70
93 92 94 96 98 87 84 85 88 91 94 97 95 95 93 88 92 85 86 86 86 79 76 74 74 74 73 73 73 74 70 74 70 70 68 66 67 68 70 69 71 71 66
100 102 101 97 98 103 99 100 100 96 91 101 100 98 95 95 91 88 84 85 91 85 81 79 76 77 77 75 76 76 77 77 73 74 69 71 72 72 71 72 70 70 70
111 109 107 108 106 106 104 102 98 94 91 87 92 93 93 89 87 85 83 83 86 85 87 84 84 82 78 81 77 80 79 78 75 71 71 75 76 76 71 73 69 69 73
110 111 110 107 105 103 100 97 96 93 93 93 90 82 85 82 84 82 79 84 85 88 89 86 87 85 84 80 82 83 80 76 74 75 75 75 78 76 81 77 69 68 72
109 109 110 109 99 103 99 96 77 93 92 89 87 84 80 81 81 80 83 85 86 89 83 82 93 90 82 81 87 86 84 74 77 76 78 78 75 86 86 75 80 76 76
101 60 86 56 94 91 91 93 92 90 90 87 85 84 84 84 81 77 85 86 86 91 87 80 90 83 83 90 90 88 82 77 79 82 82 81 84 86 85 88 74 75 79
103 100 96 92 91 88 85 80 80 81 85 85 83 83 81 82 79 77 86 85 84 88 68 66 96 97 94 95 83 89 78 83 83 85 86 85 85 79 69 74 83 86 88
100 101 95 91 89 84 84 84 81 79 77 73 77 79 82 81 81 77 86 69 74 65 84 93 90 93 96 93 91 81 83 87 92 93 72 77 93 88 86 85 90 91 91
76 84 91 88 87 84 82 80 78 79 64 79 81 84 72 82 82 63 71 59 89 80 66 88 95 87 94 83 82 83 88 94 74 78 97 94 85 85 89 94 90 84 100
57 72 77 80 81 44 38 56 54 51 58 78 75 85 85 75 75 59 87 87 72 92 88 93 88 90 85 80 85 87 84 85 97 99 85 92 91 99 109 105 98 110 121
42 53 65 68 72 61 60 64 44 54 60 60 67 68 66 61 59 62 62 80 85 87 86 75 91 79 82 85 84 80 94 93 84 94 92 102 103 112 104 115 121 127 71
13 33 44 48 53 51 48 46 45 63 49 57 56 43 43 52 57 65 70 69 83 86 85 79 82 84 77 84 90 100 81 86 95 99 98 107 106 118 119 130 103 72 57
26 25 3 20 33 45 42 42 52 43 50 42 57 47 53 62 65 63 72 74 78 78 79 83 81 77 93 98 89 83 90 93 100 112 100 111 119 127 127 83 73 58 56
33 27 27 18 8 12 25 36 32 28 45 47 47 44 56 48 55 67 64 70 75 79 81 79 88 93 87 82 84 91 97 105 104 112 115 119 112 64 71 73 61 58 56
9 20 16 5 17 10 13 23 34 41 37 41 44 53 54 50 56 62 67 71 74 79 84 89 75 62 81 92 95 101 104 106 114 117 70 53 63 63 58 61 60 60 51
Wind_Direction
278 278 279 278 278 277 277 283 282 286 287 286 283 286 278 286 286 285 274 294 282 286 288 279 261 263 281 271 273 276 276 277 272 279 282 279 286 286 294 291 283 292 288
279 279 280 278 279 281 281 283 285 285 286 287 290 288 283 299 296 295 293 290 273 277 277 282 263 271 261 267 268 270 272 274 274 277 280 280 283 287 287 284 290 281 294
275 277 278 278 279 280 282 283 283 283 285 291 292 295 299 298 296 295 294 270 290 292 294 289 288 276 284 268 271 276 275 274 283 279 281 281 280 287 284 279 273 283 286
277 278 280 280 283 284 286 287 287 288 290 292 298 297 297 298 298 297 298 298 295 295 290 288 270 293 275 269 272 272 275 280 281 279 279 279 278 283 285 279 270 274 286
278 278 280 282 283 285 291 290 288 289 292 297 297 296 296 300 298 298 298 299 296 295 295 292 291 297 269 272 269 270 280 280 281 280 277 278 276 273 273 272 271 284 266
279 280 282 283 288 290 290 288 289 290 293 295 293 295 295 296 299 297 294 294 296 290 289 290 299 292 300 301 297 275 294 294 287 284 281 278 274 272 271 271 274 269 266
278 281 286 288 289 285 286 289 290 290 289 293 294 291 294 295 296 298 294 294 294 294 292 293 291 301 300 299 300 295 294 288 293 289 283 280 277 274 273 271 270 270 270
281 283 285 285 286 286 286 288 290 291 292 292 290 292 294 294 299 299 295 293 291 293 297 293 295 298 298 299 302 297 290 295 297 290 286 282 284 277 274 273 271 269 269
283 283 283 284 284 286 287 288 288 291 290 290 292 293 295 294 296 297 297 296 297 295 296 296 296 297 297 298 296 300 296 290 295 297 290 284 280 278 276 277 280 277 270
280 282 282 281 282 284 285 286 287 287 289 289 291 291 290 294 297 298 296 293 294 294 295 296 295 295 299 299 299 299 301 303 297 299 294 291 288 285 282 279 277 276 275
279 280 281 281 282 282 285 285 286 287 286 284 286 288 289 294 295 294 294 293 291 290 293 293 292 297 298 299 298 298 300 304 299 297 296 294 290 289 287 288 284 283 281
277 278 280 281 282 281 281 281 283 286 286 288 288 288 288 290 292 291 292 291 290 290 291 290 293 295 297 297 297 299 298 303 300 293 293 290 288 286 288 288 285 285 283
279 278 277 278 279 280 281 280 280 281 280 280 281 283 286 286 287 288 289 289 289 290 291 293 292 294 295 295 297 300 301 301 297 293 290 285 284 283 283 287 292 288 284
275 276 275 274 275 274 275 277 277 275 275 271 276 278 280 280 282 284 285 285 286 289 290 291 291 293 295 296 298 299 300 297 292 293 289 285 282 283 287 289 287 284 283
270 271 272 273 273 273 274 276 275 275 276 276 275 275 278 277 280 282 281 282 285 286 287 289 290 292 295 297 299 297 298 296 294 289 288 289 286 288 292 290 283 280 281
267 268 269 269 269 268 268 268 273 270 271 270 272 274 272 278 280 280 280 280 281 284 285 288 290 291 296 298 297 296 292 292 290 289 289 289 288 291 292 288 289 285 283
260 271 264 271 261 262 262 261 263 264 265 267 267 270 272 275 276 278 278 277 280 282 286 283 293 291 289 296 294 296 297 287 290 289 289 290 292 291 289 287 285 280 278
259 257 256 257 259 261 262 263 262 259 261 264 265 268 270 271 273 274 276 278 277 279 276 279 289 289 292 292 296 297 293 292 292 292 291 291 293 290 285 285 287 281 278
256 252 252 252 253 254 257 259 260 262 263 265 265 266 267 268 269 269 271 274 287 280 285 283 285 285 288 294 297 292 293 291 293 294 292 292 295 294 293 285 280 287 280
246 243 248 248 248 249 251 255 257 259 271 265 266 266 272 267 268 276 276 281 276 287 284 287 286 294 292 295 292 292 293 295 294 292 296 298 293 292 291 291 292 293 300
249 243 243 241 246 265 279 267 267 271 275 261 264 264 267 273 273 277 275 275 280 276 281 284 291 291 288 291 291 292 291 292 296 297 293 296 297 301 301 300 299 304 303
250 239 239 239 241 248 254 255 280 268 273 273 266 268 268 275 277 281 280 270 272 279 282 290 287 288 289 289 289 295 296 298 294 298 301 301 304 303 302 306 305 303 300
287 239 235 239 238 239 248 255 252 253 273 262 270 273 268 265 286 273 268 285 278 278 284 287 290 290 293 292 296 299 296 299 300 301 302 304 304 304 305 303 297 299 300
82 67 214 224 222 237 242 254 250 253 265 259 272 255 263 278 263 286 273 277 282 285 286 285 286 290 295 295 297 297 300 301 302 302 305 306 304 304 301 294 297 300 299
79 87 94 98 127 218 240 247 245 229 269 241 256 271 261 286 284 273 286 285 287 286 287 290 293 294 298 297 301 302 302 302 303 303 305 304 300 295 296 295 298 299 298
96 103 257 189 259 184 215 215 219 241 260 265 269 265 272 283 285 283 283 284 286 288 291 293 296 294 303 302 303 302 302 303 304 303 297 298 295 295 296 295 296 298 291